When you browse on this site, cookies collect data to enhance your experience and personalize the content and advertising you see.
Visit our Privacy Policy to learn more. By continuing to use the site, you agree to this use of cookies and data.
  • In France
  • List of Countries
  • For 7 days
  • Water Temperature
  • Satellite Maps
  • Weather Map
  • Weather Widgets
  • user-avatar
    Login

    Hourly Weather Cochabamba

    Today, 27 May, Monday

    Time Temperature Precipitation Wind Pressure Humidity
    00:00 +13°C° 0 mm 2 mps 553 mmHg 65%
    01:00 +12°C° 0 mm 2 mps 553 mmHg 63%
    02:00 +12°C° 0 mm 2 mps 552 mmHg 60%
    03:00 +12°C° 0 mm 2 mps 552 mmHg 57%
    04:00 +12°C° 0 mm 2 mps 552 mmHg 54%
    05:00 +10°C° 0 mm 2 mps 552 mmHg 51%
    06:00 +13°C° 0 mm 2 mps 553 mmHg 47%
    07:00 +14°C° 0 mm 2 mps 554 mmHg 43%
    08:00 +16°C° 0 mm 2 mps 555 mmHg 38%
    09:00 +18°C° 0 mm 2 mps 556 mmHg 35%
    10:00 +20°C° 0 mm 2 mps 557 mmHg 32%
    11:00 +23°C° 0 mm 2 mps 557 mmHg 29%
    12:00 +23°C° 0.5 mm 2 mps 557 mmHg 30%
    13:00 +24°C° 0.5 mm 3 mps 557 mmHg 32%
    14:00 +23°C° 0.5 mm 4 mps 557 mmHg 34%
    15:00 +22°C° 0.2 mm 4 mps 556 mmHg 39%
    16:00 +21°C° 0.2 mm 4 mps 555 mmHg 44%
    17:00 +20°C° 0.2 mm 5 mps 555 mmHg 49%
    18:00 +19°C° 0.2 mm 4 mps 555 mmHg 57%
    19:00 +17°C° 0.2 mm 4 mps 554 mmHg 66%
    20:00 +14°C° 0.2 mm 3 mps 554 mmHg 74%
    21:00 +14°C° 0.3 mm 3 mps 554 mmHg 74%
    22:00 +14°C° 0.3 mm 2 mps 554 mmHg 74%
    23:00 +13°C° 0.3 mm 2 mps 554 mmHg 74%

    Tomorrow, 28 May, Tuesday

    Time Temperature Precipitation Wind Pressure Humidity
    00:00 +13°C° 0 mm 2 mps 553 mmHg 69%
    01:00 +12°C° 0 mm 2 mps 553 mmHg 64%
    02:00 +12°C° 0 mm 2 mps 553 mmHg 60%
    03:00 +12°C° 0 mm 2 mps 553 mmHg 56%
    04:00 +10°C° 0 mm 2 mps 552 mmHg 51%
    05:00 +11°C° 0 mm 1 mps 552 mmHg 47%
    06:00 +13°C° 0 mm 1 mps 554 mmHg 44%
    07:00 +14°C° 0 mm 1 mps 555 mmHg 41%
    08:00 +16°C° 0 mm 1 mps 556 mmHg 38%
    09:00 +19°C° 0 mm 1 mps 557 mmHg 35%
    10:00 +21°C° 0 mm 1 mps 557 mmHg 31%
    11:00 +23°C° 0 mm 1 mps 558 mmHg 28%
    12:00 +23°C° 0.1 mm 2 mps 558 mmHg 30%
    13:00 +24°C° 0.1 mm 2 mps 557 mmHg 33%
    14:00 +24°C° 0.1 mm 3 mps 557 mmHg 35%
    15:00 +22°C° 0.1 mm 3 mps 556 mmHg 40%
    16:00 +22°C° 0.1 mm 4 mps 556 mmHg 44%
    17:00 +21°C° 0.1 mm 4 mps 555 mmHg 48%
    18:00 +19°C° 0 mm 4 mps 555 mmHg 57%
    19:00 +17°C° 0 mm 3 mps 555 mmHg 65%
    20:00 +16°C° 0 mm 3 mps 554 mmHg 74%
    21:00 +14°C° 0 mm 3 mps 554 mmHg 75%
    22:00 +15°C° 0 mm 2 mps 555 mmHg 77%
    23:00 +14°C° 0 mm 2 mps 555 mmHg 78%

    Day after tomorrow, 29 May, Wednesday

    Time Temperature Precipitation Wind Pressure Humidity
    00:00 +14°C° 0 mm 2 mps 554 mmHg 77%
    01:00 +13°C° 0 mm 2 mps 554 mmHg 76%
    02:00 +13°C° 0 mm 2 mps 554 mmHg 75%
    03:00 +13°C° 0 mm 2 mps 553 mmHg 74%
    04:00 +12°C° 0 mm 2 mps 553 mmHg 73%
    05:00 +12°C° 0 mm 2 mps 553 mmHg 72%
    06:00 +13°C° 0 mm 2 mps 554 mmHg 66%
    07:00 +14°C° 0 mm 2 mps 555 mmHg 60%
    08:00 +15°C° 0 mm 2 mps 556 mmHg 55%
    09:00 +17°C° 0 mm 2 mps 557 mmHg 49%
    10:00 +19°C° 0 mm 2 mps 558 mmHg 44%
    11:00 +21°C° 0 mm 2 mps 558 mmHg 38%
    12:00 +23°C° 0.2 mm 2 mps 558 mmHg 39%
    13:00 +22°C° 0.2 mm 3 mps 557 mmHg 40%
    14:00 +22°C° 0.2 mm 3 mps 557 mmHg 41%
    15:00 +22°C° 0.1 mm 4 mps 556 mmHg 44%
    16:00 +21°C° 0.1 mm 4 mps 555 mmHg 46%
    17:00 +21°C° 0.1 mm 4 mps 555 mmHg 49%
    18:00 +19°C° 0 mm 4 mps 555 mmHg 57%
    19:00 +18°C° 0 mm 3 mps 554 mmHg 65%
    20:00 +16°C° 0 mm 3 mps 554 mmHg 73%
    21:00 +14°C° 0 mm 3 mps 554 mmHg 72%
    22:00 +14°C° 0 mm 3 mps 554 mmHg 71%
    23:00 +14°C° 0 mm 2 mps 554 mmHg 70%

    30 May, Thursday

    Time Temperature Precipitation Wind Pressure Humidity
    00:00 +14°C° 0 mm 2 mps 554 mmHg 66%
    01:00 +14°C° 0 mm 2 mps 553 mmHg 62%
    02:00 +13°C° 0 mm 2 mps 553 mmHg 58%
    03:00 +13°C° 0 mm 2 mps 553 mmHg 54%
    04:00 +13°C° 0 mm 2 mps 552 mmHg 51%
    05:00 +12°C° 0 mm 2 mps 552 mmHg 47%
    06:00 +14°C° 0 mm 2 mps 553 mmHg 43%
    07:00 +15°C° 0 mm 2 mps 555 mmHg 40%
    08:00 +16°C° 0 mm 2 mps 556 mmHg 36%
    09:00 +19°C° 0 mm 2 mps 557 mmHg 32%
    10:00 +22°C° 0 mm 1 mps 557 mmHg 28%
    11:00 +24°C° 0 mm 1 mps 558 mmHg 24%
    12:00 +24°C° 0 mm 2 mps 558 mmHg 25%
    13:00 +25°C° 0 mm 2 mps 557 mmHg 26%
    14:00 +26°C° 0 mm 3 mps 557 mmHg 27%
    15:00 +25°C° 0 mm 3 mps 556 mmHg 31%
    16:00 +24°C° 0 mm 3 mps 556 mmHg 36%
    17:00 +22°C° 0 mm 4 mps 555 mmHg 41%
    18:00 +20°C° 0 mm 3 mps 554 mmHg 52%
    19:00 +18°C° 0 mm 3 mps 554 mmHg 62%
    20:00 +16°C° 0 mm 3 mps 553 mmHg 73%
    21:00 +14°C° 0 mm 3 mps 553 mmHg 68%
    22:00 +15°C° 0 mm 2 mps 553 mmHg 63%
    23:00 +14°C° 0 mm 2 mps 553 mmHg 58%

    31 May, Friday

    Time Temperature Precipitation Wind Pressure Humidity
    00:00 +13°C° 0 mm 2 mps 552 mmHg 56%
    01:00 +13°C° 0 mm 2 mps 552 mmHg 54%
    02:00 +13°C° 0 mm 2 mps 552 mmHg 51%
    03:00 +12°C° 0 mm 2 mps 552 mmHg 51%
    04:00 +12°C° 0 mm 2 mps 551 mmHg 50%
    05:00 +12°C° 0 mm 2 mps 551 mmHg 50%
    06:00 +13°C° 0 mm 2 mps 553 mmHg 46%
    07:00 +15°C° 0 mm 2 mps 554 mmHg 42%
    08:00 +16°C° 0 mm 2 mps 555 mmHg 38%
    09:00 +18°C° 0 mm 2 mps 556 mmHg 35%
    10:00 +20°C° 0 mm 2 mps 557 mmHg 31%
    11:00 +23°C° 0 mm 2 mps 558 mmHg 28%
    12:00 +24°C° 0 mm 2 mps 557 mmHg 29%
    13:00 +24°C° 0 mm 2 mps 557 mmHg 31%
    14:00 +24°C° 0 mm 3 mps 556 mmHg 33%
    15:00 +24°C° 0.1 mm 3 mps 556 mmHg 37%
    16:00 +22°C° 0.1 mm 3 mps 555 mmHg 41%
    17:00 +21°C° 0.1 mm 4 mps 554 mmHg 45%
    18:00 +19°C° 0 mm 4 mps 554 mmHg 54%
    19:00 +18°C° 0 mm 3 mps 554 mmHg 63%
    20:00 +16°C° 0 mm 3 mps 553 mmHg 72%
    21:00 +14°C° 0 mm 3 mps 553 mmHg 71%
    22:00 +14°C° 0 mm 3 mps 553 mmHg 70%
    23:00 +14°C° 0 mm 2 mps 553 mmHg 69%

    1 June, Saturday

    Time Temperature Precipitation Wind Pressure Humidity
    00:00 +14°C° 0 mm 2 mps 553 mmHg 68%
    01:00 +13°C° 0 mm 2 mps 552 mmHg 66%
    02:00 +13°C° 0 mm 2 mps 552 mmHg 64%
    03:00 +12°C° 0 mm 2 mps 552 mmHg 62%
    04:00 +12°C° 0 mm 2 mps 551 mmHg 60%
    05:00 +12°C° 0 mm 2 mps 551 mmHg 57%
    06:00 +13°C° 0 mm 2 mps 552 mmHg 52%
    07:00 +14°C° 0 mm 2 mps 553 mmHg 47%
    08:00 +15°C° 0 mm 2 mps 555 mmHg 42%
    09:00 +18°C° 0 mm 1 mps 555 mmHg 37%
    10:00 +20°C° 0 mm 1 mps 556 mmHg 31%
    11:00 +22°C° 0 mm 1 mps 557 mmHg 26%
    12:00 +23°C° 0 mm 2 mps 556 mmHg 28%
    13:00 +24°C° 0 mm 2 mps 556 mmHg 30%
    14:00 +24°C° 0 mm 3 mps 556 mmHg 32%
    15:00 +22°C° 0.1 mm 3 mps 555 mmHg 37%
    16:00 +21°C° 0.1 mm 3 mps 554 mmHg 42%
    17:00 +21°C° 0.1 mm 4 mps 554 mmHg 47%
    18:00 +19°C° 0.1 mm 3 mps 554 mmHg 56%
    19:00 +17°C° 0.1 mm 3 mps 553 mmHg 65%
    20:00 +14°C° 0.1 mm 3 mps 553 mmHg 74%
    21:00 +14°C° 0 mm 3 mps 553 mmHg 75%
    22:00 +14°C° 0 mm 2 mps 553 mmHg 75%
    23:00 +14°C° 0 mm 2 mps 553 mmHg 76%
    Show more